Regional Weather Roundup
Issued by NWS

Home | Current Version | Previous Version | Text Only | Print | Product List | Glossary Off
Versions: 1 2 3 4 5 6 7 8 9 10 11 12 13 14 15 16 17 18 19 20 21 22 23 24 25 26 27

000
ASUS45 KSLC 271910
RWRUT

UTAH REGIONAL WEATHER ROUNDUP
NATIONAL WEATHER SERVICE SALT LAKE CITY UT
100 PM MDT FRI MAY 27 2016

UTZ001>011-023>025-272000-

NORTHERN UTAH

CITY           SKY/WX    TMP DP  RH WIND       PRES   REMARKS
BRIGHAM CITY     N/A     66  37  33 S7        29.94F
HILL AFB       MOSUNNY   65  38  37 VRB5      29.96F
LOGAN          MOSUNNY   66  40  38 CALM      29.93F
OGDEN          MOSUNNY   66  39  37 SW9       29.94F
PROVO AIRPORT  PTSUNNY   63  37  39 W8        29.98S
SALT LAKE CITY PTSUNNY   69  34  27 CALM      29.94F
VERNAL         CLOUDY    62  38  40 N18G28    29.95S
WENDOVER       MOSUNNY   72  36  26 S8        29.94F
HEBER CITY     MOSUNNY   63  36  36 W5        29.97F
WEST JORDAN    MOSUNNY   63  39  42 CALM      29.97F

$$

UTZ012>022-026-027-272000-

SOUTHERN/CENTRAL UTAH

CITY           SKY/WX    TMP DP  RH WIND       PRES   REMARKS
BLANDING       PTSUNNY   65  31  27 SW6       30.02F
BRYCE CANYON   PTSUNNY   57  30  35 N10G18    30.07F
CEDAR CITY     MOSUNNY   69  33  26 NW9       30.00F
DELTA          MOSUNNY   66  34  30 W6        29.97F
HANKSVILLE     MOSUNNY   72  30  21 E3        29.92F
MILFORD        MOSUNNY   67  31  26 VRB3      29.97F
MOAB/CYNLANDS  SUNNY     71  34  25 W8        29.89F
PRICE          MOSUNNY   67  29  24 W13G25    29.93F
ST GEORGE      PTCLDY    77  37  24 W9        29.91F
KANAB          PTSUNNY   72  30  21 W15G21    29.99F

$$

REGIONAL REPORTS     COLORADO/ARIZONA

CITY           SKY/WX    TMP DP  RH WIND       PRES   REMARKS
CRAIG, CO      CLOUDY    56  38  50 SW10      29.96F
GRAND JUNCTION PTSUNNY   67  34  29 N13       29.89F
RIFLE          CLOUDY    63  35  35 W14       29.90F
MONTROSE       SUNNY     63  32  31 VRB3      29.95F
CORTEZ         MOSUNNY   67  32  27 W21G28    29.93F
PAGE, AZ       MOSUNNY   74  30  19 N8        29.92F
GRAND CANYON   CLOUDY    63  29  27 VRB6      30.07R
KINGMAN        MOSUNNY   80  29  15 W13G18    29.93F
FLAGSTAFF      CLOUDY    60  27  28 W8        30.08S

$$

REGIONAL REPORTS    NEVADA/IDAHO/WYOMING

CITY           SKY/WX    TMP DP  RH WIND       PRES   REMARKS
LAS VEGAS, NV  MOSUNNY   84  32  15 N6        29.83F
ELY            CLOUDY    61  29  29 NE6       30.03F
ELKO           MOSUNNY   66  38  35 W12       29.97F
POCATELLO, ID  MOSUNNY   66  40  38 W20       29.95F
BURLEY         SUNNY     63  39  41 W15G24    29.94F
EVANSTON, WY   CLOUDY    52  35  52 NE3       30.02F
ROCK SPRINGS   CLOUDY    55  33  43 NW9       29.98F
KEMMERER         N/A     57  36  44 W18G25    30.01F

$$




USA.gov is the U.S. government's official web portal to all federal, state and local government web resources and services.